Radiation Dose at Monitoring Post of Fukushima Daini Nuclear Power Station
Date,Time,MP-1(microSv/h),MP-2(microSv/h),MP-3(microSv/h),MP-4(microSv/h),MP-5(microSv/h),MP-6(microSv/h),MP-7(microSv/h),Wind Direction,Wind Velocity(m/s),Rain
2022/06/02,00:00,0.150,0.140,0.217,0.212,0.215,0.120,0.077,south-southeast,1.9,No
2022/06/02,00:10,0.151,0.139,0.219,0.213,0.215,0.120,0.076,south,2.2,No
2022/06/02,00:20,0.151,0.139,0.218,0.212,0.215,0.120,0.077,south,3.0,No
2022/06/02,00:30,0.150,0.140,0.219,0.214,0.215,0.120,0.076,south,3.2,No
2022/06/02,00:40,0.152,0.139,0.219,0.212,0.215,0.120,0.076,south,3.0,No
2022/06/02,00:50,0.150,0.139,0.218,0.212,0.213,0.120,0.076,south,2.9,No
2022/06/02,01:00,0.151,0.139,0.219,0.212,0.215,0.120,0.076,south,3.2,No
2022/06/02,01:10,0.150,0.140,0.217,0.213,0.214,0.119,0.076,south,3.5,No
2022/06/02,01:20,0.151,0.139,0.219,0.214,0.215,0.120,0.076,south,3.3,No
2022/06/02,01:30,0.151,0.140,0.218,0.213,0.215,0.120,0.078,south,3.4,No
2022/06/02,01:40,0.152,0.140,0.218,0.213,0.216,0.120,0.076,south,3.2,No
2022/06/02,01:50,0.150,0.139,0.219,0.213,0.214,0.120,0.077,south,3.1,No
2022/06/02,02:00,0.151,0.140,0.218,0.212,0.216,0.120,0.077,south,2.9,No
2022/06/02,02:10,0.151,0.140,0.220,0.214,0.215,0.119,0.077,south,1.8,No
2022/06/02,02:20,0.150,0.140,0.220,0.212,0.216,0.120,0.077,south,3.1,No
2022/06/02,02:30,0.151,0.140,0.218,0.213,0.215,0.119,0.077,south,3.2,No
2022/06/02,02:40,0.149,0.139,0.218,0.213,0.215,0.120,0.077,south,4.5,No
2022/06/02,02:50,0.150,0.140,0.218,0.212,0.215,0.119,0.077,south,4.8,No
2022/06/02,03:00,0.150,0.140,0.218,0.213,0.215,0.120,0.076,south,4.5,No
2022/06/02,03:10,0.151,0.139,0.219,0.212,0.217,0.121,0.077,south,3.3,No
2022/06/02,03:20,0.151,0.141,0.219,0.213,0.214,0.120,0.077,south,5.8,No
2022/06/02,03:30,0.151,0.140,0.219,0.211,0.217,0.121,0.077,south,4.4,No
2022/06/02,03:40,0.151,0.139,0.219,0.212,0.215,0.121,0.078,south-southwest,3.0,No
2022/06/02,03:50,0.150,0.139,0.218,0.212,0.216,0.121,0.078,south-southwest,2.2,No
2022/06/02,04:00,0.151,0.140,0.219,0.213,0.216,0.120,0.078,south,2.9,No
2022/06/02,04:10,0.151,0.140,0.219,0.213,0.217,0.121,0.077,south,3.3,No
2022/06/02,04:20,0.151,0.141,0.219,0.213,0.215,0.121,0.077,south,2.5,No
2022/06/02,04:30,0.151,0.140,0.219,0.214,0.214,0.121,0.076,south,2.8,No
2022/06/02,04:40,0.150,0.140,0.219,0.212,0.217,0.120,0.076,south,3.9,No
2022/06/02,04:50,0.151,0.140,0.219,0.213,0.215,0.121,0.076,south,4.8,No
2022/06/02,05:00,0.151,0.140,0.218,0.213,0.216,0.121,0.077,south,5.3,No
2022/06/02,05:10,0.151,0.140,0.218,0.213,0.215,0.121,0.077,south,3.8,No
2022/06/02,05:20,0.151,0.139,0.218,0.213,0.215,0.119,0.077,south-southwest,1.9,No
2022/06/02,05:30,0.152,0.140,0.219,0.212,0.215,0.120,0.077,south,2.2,No
2022/06/02,05:40,0.150,0.140,0.218,0.213,0.215,0.121,0.076,south,3.6,No
2022/06/02,05:50,0.150,0.139,0.219,0.212,0.214,0.120,0.077,south,4.2,No
2022/06/02,06:00,0.151,0.140,0.218,0.213,0.215,0.120,0.077,south,4.7,No
2022/06/02,06:10,0.150,0.139,0.217,0.212,0.213,0.120,0.076,south-southwest,3.8,No
2022/06/02,06:20,0.151,0.139,0.219,0.214,0.215,0.120,0.078,south-southwest,2.7,No
2022/06/02,06:30,0.150,0.139,0.217,0.211,0.213,0.120,0.076,south-southwest,3.3,No
2022/06/02,06:40,0.152,0.138,0.218,0.213,0.216,0.120,0.076,south-southwest,3.4,No
2022/06/02,06:50,0.150,0.140,0.217,0.213,0.214,0.119,0.078,south,4.1,No
2022/06/02,07:00,0.151,0.139,0.218,0.212,0.214,0.120,0.077,south,3.2,No
2022/06/02,07:10,0.149,0.139,0.216,0.211,0.216,0.121,0.076,south,3.9,No
2022/06/02,07:20,0.152,0.140,0.216,0.213,0.212,0.121,0.077,south,2.9,No
2022/06/02,07:30,0.148,0.139,0.216,0.212,0.215,0.119,0.077,south,3.0,No
2022/06/02,07:40,0.151,0.138,0.218,0.210,0.214,0.120,0.076,south,2.9,No
2022/06/02,07:50,0.149,0.138,0.217,0.211,0.213,0.119,0.076,south-southeast,3.3,No
2022/06/02,08:00,0.149,0.139,0.216,0.213,0.216,0.120,0.077,south,4.5,No
2022/06/02,08:10,0.151,0.140,0.216,0.212,0.215,0.120,0.076,south,5.3,No
2022/06/02,08:20,0.150,0.139,0.217,0.209,0.213,0.120,0.076,south,5.4,No
2022/06/02,08:30,0.149,0.138,0.215,0.209,0.211,0.119,0.076,south-southeast,5.5,No
2022/06/02,08:40,0.151,0.138,0.215,0.209,0.215,0.119,0.077,south-southeast,5.6,No
2022/06/02,08:50,0.151,0.139,0.216,0.211,0.214,0.120,0.077,south-southeast,5.2,No
2022/06/02,09:00,0.149,0.139,0.216,0.212,0.215,0.121,0.076,south-southeast,6.6,No
2022/06/02,09:10,0.150,0.139,0.216,0.213,0.214,0.119,0.076,south-southeast,6.4,No
2022/06/02,09:20,0.150,0.138,0.216,0.212,0.213,0.120,0.076,south-southeast,6.9,No
2022/06/02,09:30,0.151,0.137,0.217,0.211,0.212,0.120,0.076,south-southeast,7.8,No
2022/06/02,09:40,0.150,0.139,0.216,0.210,0.215,0.120,0.076,south,8.5,No
2022/06/02,09:50,0.148,0.140,0.216,0.210,0.216,0.120,0.076,south-southeast,10.1,No
2022/06/02,10:00,0.148,0.139,0.216,0.211,0.214,0.119,0.076,south-southeast,10.6,No
2022/06/02,10:10,0.149,0.139,0.216,0.212,0.213,0.119,0.076,south-southeast,10.1,No
2022/06/02,10:20,0.151,0.138,0.217,0.213,0.213,0.120,0.077,south-southeast,11.7,No
2022/06/02,10:30,0.150,0.138,0.217,0.213,0.214,0.120,0.077,south-southeast,11.7,No
2022/06/02,10:40,0.150,0.141,0.217,0.213,0.216,0.120,0.076,south-southeast,11.2,No
2022/06/02,10:50,0.149,0.139,0.218,0.211,0.215,0.120,0.076,south-southeast,11.8,No
2022/06/02,11:00,0.149,0.139,0.218,0.211,0.214,0.121,0.077,south-southeast,11.7,No
2022/06/02,11:10,0.150,0.138,0.220,0.215,0.213,0.120,0.076,south-southeast,10.7,No
2022/06/02,11:20,0.151,0.140,0.221,0.214,0.212,0.120,0.076,south-southeast,10.9,No
2022/06/02,11:30,0.151,0.140,0.220,0.213,0.217,0.120,0.077,south-southeast,11.5,No
2022/06/02,11:40,0.150,0.139,0.218,0.212,0.215,0.120,0.077,south-southeast,10.7,No
2022/06/02,11:50,0.149,0.138,0.218,0.211,0.215,0.119,0.077,south-southeast,11.8,No
2022/06/02,12:00,0.148,0.139,0.217,0.211,0.214,0.120,0.075,south-southeast,10.7,No
2022/06/02,12:10,0.148,0.137,0.218,0.214,0.213,0.120,0.076,south-southeast,11.1,No
2022/06/02,12:20,0.149,0.140,0.217,0.215,0.212,0.121,0.077,south-southeast,11.5,No
2022/06/02,12:30,0.149,0.140,0.216,0.213,0.213,0.120,0.076,south-southeast,10.7,No
2022/06/02,12:40,0.150,0.139,0.218,0.213,0.213,0.119,0.076,south-southeast,10.1,No
2022/06/02,12:50,0.152,0.139,0.217,0.211,0.212,0.120,0.076,south,11.7,No
2022/06/02,13:00,0.151,0.138,0.219,0.211,0.213,0.119,0.077,south-southeast,11.1,No
2022/06/02,13:10,0.150,0.138,0.219,0.212,0.216,0.120,0.076,south-southeast,12.6,No
2022/06/02,13:20,0.150,0.138,0.217,0.215,0.217,0.121,0.076,south-southeast,13.3,No
2022/06/02,13:30,0.150,0.139,0.217,0.213,0.216,0.120,0.076,south-southeast,13.4,No
2022/06/02,13:40,0.150,0.140,0.218,0.213,0.216,0.120,0.076,south-southeast,13.3,No
2022/06/02,13:50,0.149,0.141,0.218,0.214,0.215,0.120,0.076,south-southeast,13.2,No
2022/06/02,14:00,0.149,0.140,0.218,0.212,0.213,0.120,0.077,south-southeast,11.1,No
2022/06/02,14:10,0.152,0.139,0.219,0.212,0.214,0.120,0.076,south-southeast,11.4,No
2022/06/02,14:20,0.152,0.139,0.218,0.214,0.212,0.119,0.076,south-southeast,11.4,Yes
2022/06/02,14:30,0.152,0.140,0.220,0.215,0.217,0.120,0.077,south-southeast,10.3,Yes
2022/06/02,14:40,0.150,0.140,0.222,0.214,0.215,0.121,0.077,south-southeast,11.4,Yes
2022/06/02,14:50,0.151,0.140,0.220,0.215,0.215,0.121,0.077,south-southeast,9.8,No
2022/06/02,15:00,0.152,0.139,0.218,0.216,0.217,0.120,0.077,south-southeast,10.1,No
2022/06/02,15:10,0.151,0.139,0.218,0.214,0.217,0.121,0.077,south,9.8,No
2022/06/02,15:20,0.151,0.140,0.219,0.213,0.216,0.120,0.076,south,9.5,No
2022/06/02,15:30,0.150,0.140,0.218,0.212,0.215,0.120,0.076,south,6.4,No
2022/06/02,15:40,0.150,0.138,0.218,0.213,0.213,0.120,0.077,south,6.9,No
2022/06/02,15:50,0.149,0.139,0.219,0.215,0.213,0.121,0.077,south,7.1,No
2022/06/02,16:00,0.149,0.138,0.220,0.215,0.215,0.120,0.077,south-southwest,4.8,No
2022/06/02,16:10,0.150,0.139,0.221,0.213,0.214,0.121,0.078,south-southwest,7.3,No
2022/06/02,16:20,0.150,0.140,0.219,0.214,0.213,0.121,0.076,northwest,3.2,No
2022/06/02,16:30,0.151,0.140,0.219,0.216,0.214,0.121,0.076,north,6.5,No
2022/06/02,16:40,0.152,0.140,0.221,0.213,0.215,0.120,0.077,north,5.0,No
2022/06/02,16:50,0.151,0.140,0.220,0.213,0.219,0.120,0.077,north-northwest,2.0,No
2022/06/02,17:00,0.152,0.140,0.220,0.217,0.218,0.121,0.077,northwest,3.8,No
2022/06/02,17:10,0.152,0.140,0.222,0.214,0.215,0.121,0.077,north-northwest,2.6,Yes
2022/06/02,17:20,0.151,0.141,0.220,0.215,0.217,0.120,0.077,north-northwest,1.5,Yes
2022/06/02,17:30,0.154,0.141,0.221,0.218,0.218,0.122,0.079,northwest,1.1,Yes
2022/06/02,17:40,0.154,0.142,0.222,0.215,0.218,0.123,0.080,-,CALM,Yes
2022/06/02,17:50,0.154,0.142,0.223,0.219,0.220,0.123,0.080,north-northeast,1.7,Yes
2022/06/02,18:00,0.155,0.142,0.224,0.216,0.218,0.123,0.080,north,4.0,Yes
2022/06/02,18:10,0.154,0.143,0.221,0.216,0.219,0.123,0.080,north-northwest,3.2,Yes
2022/06/02,18:20,0.156,0.143,0.224,0.218,0.220,0.124,0.081,north,3.4,Yes
2022/06/02,18:30,0.154,0.143,0.222,0.217,0.217,0.124,0.081,north-northwest,0.9,Yes
2022/06/02,18:40,0.156,0.144,0.224,0.220,0.221,0.124,0.081,north-northwest,1.4,Yes
2022/06/02,18:50,0.156,0.146,0.225,0.218,0.220,0.126,0.082,northwest,2.2,Yes
2022/06/02,19:00,0.159,0.147,0.229,0.221,0.222,0.128,0.085,north,1.9,Yes
2022/06/02,19:10,0.160,0.149,0.229,0.222,0.223,0.132,0.087,west-northwest,0.7,Yes
2022/06/02,19:20,0.162,0.152,0.230,0.225,0.225,0.134,0.090,-,CALM,Yes
2022/06/02,19:30,0.162,0.151,0.230,0.224,0.228,0.134,0.091,-,CALM,Yes
2022/06/02,19:40,0.161,0.151,0.230,0.225,0.226,0.134,0.092,east-northeast,5.7,Yes
2022/06/02,19:50,0.163,0.152,0.228,0.222,0.226,0.135,0.093,south,5.0,Yes
2022/06/02,20:00,0.161,0.152,0.230,0.223,0.225,0.135,0.093,south,4.4,Yes
2022/06/02,20:10,0.162,0.151,0.227,0.221,0.227,0.134,0.091,south,6.3,Yes
2022/06/02,20:20,0.160,0.150,0.229,0.223,0.224,0.135,0.093,south,6.8,Yes
2022/06/02,20:30,0.160,0.150,0.226,0.221,0.227,0.132,0.091,south,7.1,Yes
2022/06/02,20:40,0.159,0.149,0.228,0.221,0.221,0.133,0.090,south-southwest,5.8,Yes
2022/06/02,20:50,0.159,0.148,0.224,0.219,0.225,0.130,0.089,south-southwest,6.5,Yes
2022/06/02,21:00,0.157,0.147,0.224,0.220,0.221,0.129,0.088,south,6.0,Yes
2022/06/02,21:10,0.156,0.146,0.222,0.218,0.222,0.128,0.086,south,6.0,Yes
2022/06/02,21:20,0.154,0.145,0.222,0.216,0.218,0.126,0.085,south,6.4,No
2022/06/02,21:30,0.153,0.144,0.219,0.214,0.219,0.124,0.082,south,6.1,No
2022/06/02,21:40,0.152,0.142,0.219,0.214,0.215,0.124,0.082,south,4.3,No
2022/06/02,21:50,0.153,0.141,0.217,0.211,0.217,0.122,0.080,southwest,3.3,No
2022/06/02,22:00,0.151,0.141,0.217,0.212,0.215,0.122,0.080,west-southwest,2.3,No
2022/06/02,22:10,0.150,0.140,0.217,0.211,0.215,0.120,0.079,west-southwest,2.1,No
2022/06/02,22:20,0.150,0.139,0.217,0.211,0.214,0.120,0.078,south-southwest,1.9,No
2022/06/02,22:30,0.151,0.139,0.215,0.210,0.214,0.120,0.077,south-southwest,3.1,No
2022/06/02,22:40,0.150,0.140,0.215,0.211,0.213,0.119,0.077,south-southwest,3.6,No
2022/06/02,22:50,0.149,0.139,0.215,0.209,0.213,0.119,0.077,south-southwest,3.4,No
2022/06/02,23:00,0.150,0.139,0.214,0.210,0.213,0.119,0.078,west,2.5,No
2022/06/02,23:10,0.148,0.138,0.215,0.209,0.213,0.119,0.076,west,1.3,No
2022/06/02,23:20,0.149,0.139,0.214,0.210,0.214,0.119,0.078,southwest,1.3,No
2022/06/02,23:30,0.148,0.138,0.215,0.209,0.215,0.118,0.076,-,CALM,No
2022/06/02,23:40,0.149,0.139,0.213,0.209,0.212,0.119,0.076,northwest,1.6,No
2022/06/02,23:50,0.149,0.138,0.215,0.208,0.214,0.118,0.077,northwest,2.6,No
